Showing default

ORBCOMM FM 5, 25117

Orbit data source: Space-Track

ORBCOMM FM 5, 25117 is a payload satellite owned by Orbcomm (US) in LEO that was launched on Tue, 23 Dec 1997 UTC via a PEGASUS XL/HAPS launch vehicle from the Pegasus Launch, Eastern Range Air Space (ERAS). Payload-class satellites include a variety of spacecraft equipped with specific instruments for various scientific and technological missions. These include communications satellites like Starlink; space stations such as the ISS; scientific satellites like the Hubble; Earth observation satellites from companies like Planet Labs, Umbra, and HawkEye 360; GPS; miniature CubeSats for education and research; and military/defense satellites.

Loading next visibility...
Identifier
25117, 1997-084F
Orbit
LEO
Country
Flag of USUS / ORB
Related business
Manufacturer
OSC-Germantown
Mission
Non-operational Commercial Communications
Bus & Motor
MICROSTAR, Unknown motor
Mass
42 kg wet, 42 kg dry
Launch date (UTC)
1997-12-23 (28 years ago)
Launch vehicle
PEGASUS XL/HAPS
Launch site
Pegasus Launch, Eastern Range Air Space (ERAS)
Object type
Payload
Rocket body
Debris
Shape & HBR
Cyl + 2 Pan, 4.2 m
Radar Cross Section
1.484 m², Medium (>0.1 m² and < 1m²)

Expand to show TLE details & history
Last TLE update: 2 days ago

TLE from 2 days ago
0 ORBCOMM FM 5
1 25117U 97084F   26171.35510516  .00000816  00000-0  25976-3 0  9994
2 25117  45.0159  38.2146 0001786 312.0970  47.9730 14.47374636493922
Epoch: 2026-06-20T08:31Z
TLE epoch observation values (Epoch: 2026-06-20T08:31:21.085Z)
Latitude
-0.00004°
Longitude
1.80579°
Altitude
733.386 km
Speed
7.49 km/s
True Right ascension
02h 32m 51s
True Declination
0° 00' 00"
Sunlit
Object was in daylight at epoch
Visualization orbit readout
Latitude
Unknown
Longitude
Unknown
Altitude
Unknown
Speed
Unknown
Apparent Right ascension
Unknown
Apparent Declination
Unknown
Sunlit
N/A
Visualization observer readout
Local Sidereal Time
23:09:12
Azimuth
Unknown
Elevation
Unknown
Doppler factor
Unknown
Orbital elements
Apogee altitude
737.057 km
Perigee altitude
734.516 km
Semi-major axis
7,113.923 km
Eccentricity
0.00018
Inclination
45.0159°
RAAN
38.2146°
Arg. of periapsis
312.097°
True anomaly
47.98821°
Mean anomaly
47.973°
Eccentric anomaly
47.9806°
Mean motion
3.61726 °/min
Orbital period
99.52 mins
BSTAR
0.00025976
Loading maneuver chart data...
Computing Atmospheric mass density...

Documentation

Showing up to 5 results
|